Time,TemperatureF,DewpointF,PressureIn,WindDirection,WindDirectionDegrees,WindSpeedMPH,WindSpeedGustMPH,Humidity,HourlyPrecipIn,Conditions,Clouds,dailyrainin,SoftwareType,DateUTC
2012-10-22 00:02:00,33.9,11.5,0.00,WNW,284,0.0,-999.0,39,0.00,,,-99.99,,2012-10-22 08:02:00,
2012-10-22 00:07:00,33.8,11.3,0.00,WNW,284,0.0,-999.0,38,0.00,,,-99.99,,2012-10-22 08:07:00,
2012-10-22 00:12:00,33.7,12.4,0.00,WNW,300,0.0,-999.0,40,0.00,,,-99.99,,2012-10-22 08:12:00,
2012-10-22 00:17:00,33.2,13.0,0.00,North,3,0.0,-999.0,42,0.00,,,-99.99,,2012-10-22 08:17:00,
2012-10-22 00:22:00,33.0,17.6,0.00,North,354,1.2,-999.0,52,0.00,,,-99.99,,2012-10-22 08:22:00,
2012-10-22 00:27:00,32.7,15.5,0.00,North,350,0.0,-999.0,48,0.00,,,-99.99,,2012-10-22 08:27:00,
2012-10-22 00:32:00,33.0,14.4,0.00,NNW,340,0.0,-999.0,46,0.00,,,-99.99,,2012-10-22 08:32:00,
2012-10-22 00:37:00,33.3,18.4,0.00,NNW,338,1.3,-999.0,53,0.00,,,-99.99,,2012-10-22 08:37:00,
2012-10-22 00:42:00,33.3,14.9,0.00,NNW,336,0.0,-999.0,46,0.00,,,-99.99,,2012-10-22 08:42:00,
2012-10-22 00:47:00,33.6,12.2,0.00,West,261,0.9,-999.0,40,0.00,,,-99.99,,2012-10-22 08:47:00,
2012-10-22 00:52:00,33.7,11.5,0.00,West,260,0.0,-999.0,39,0.00,,,-99.99,,2012-10-22 08:52:00,
2012-10-22 00:57:00,33.5,12.2,0.00,SSE,147,1.0,-999.0,40,0.00,,,-99.99,,2012-10-22 08:57:00,
2012-10-22 01:02:00,33.5,13.1,0.00,SE,141,0.0,-999.0,42,0.00,,,-99.99,,2012-10-22 09:02:00,
2012-10-22 01:07:00,33.5,12.6,0.00,SSW,206,0.0,-999.0,41,0.00,,,-99.99,,2012-10-22 09:07:00,
2012-10-22 01:12:00,33.5,11.7,0.00,SW,227,1.0,-999.0,40,0.00,,,-99.99,,2012-10-22 09:12:00,
2012-10-22 01:17:00,33.3,11.7,0.00,SW,233,2.4,-999.0,40,0.00,,,-99.99,,2012-10-22 09:17:00,
2012-10-22 01:22:00,33.2,12.1,0.00,WSW,246,1.1,-999.0,41,0.00,,,-99.99,,2012-10-22 09:22:00,
2012-10-22 01:28:00,33.7,10.5,0.00,NW,312,1.9,-999.0,37,0.00,,,-99.99,,2012-10-22 09:28:00,
2012-10-22 01:33:00,33.6,13.0,0.00,NNW,333,2.7,-999.0,42,0.00,,,-99.99,,2012-10-22 09:33:00,
2012-10-22 01:38:00,33.4,13.9,0.00,NW,315,2.6,-999.0,44,0.00,,,-99.99,,2012-10-22 09:38:00,
2012-10-22 01:43:00,33.5,12.3,0.00,WNW,293,5.3,-999.0,41,0.00,,,-99.99,,2012-10-22 09:43:00,
2012-10-22 01:48:00,33.2,13.0,0.00,WNW,283,4.7,-999.0,42,0.00,,,-99.99,,2012-10-22 09:48:00,
2012-10-22 01:53:00,33.1,13.1,0.00,WNW,297,5.8,-999.0,43,0.00,,,-99.99,,2012-10-22 09:53:00,
2012-10-22 01:58:00,32.9,13.5,0.00,WNW,294,5.2,-999.0,44,0.00,,,-99.99,,2012-10-22 09:58:00,
2012-10-22 02:03:00,32.8,13.7,0.00,WNW,298,4.0,-999.0,44,0.00,,,-99.99,,2012-10-22 10:03:00,
2012-10-22 02:08:00,33.0,13.9,0.00,WNW,302,4.8,-999.0,45,0.00,,,-99.99,,2012-10-22 10:08:00,
2012-10-22 02:13:00,32.6,14.4,0.00,WNW,302,5.1,-999.0,46,0.00,,,-99.99,,2012-10-22 10:13:00,
2012-10-22 02:18:00,32.4,15.1,0.00,NW,310,3.9,-999.0,48,0.00,,,-99.99,,2012-10-22 10:18:00,
2012-10-22 02:23:00,32.0,15.4,0.00,WNW,298,4.7,-999.0,49,0.00,,,-99.99,,2012-10-22 10:23:00,
2012-10-22 02:28:00,31.5,16.2,0.00,NW,314,5.2,-999.0,52,0.00,,,-99.99,,2012-10-22 10:28:00,
2012-10-22 02:33:00,31.6,16.3,0.00,NW,313,5.7,-999.0,52,0.00,,,-99.99,,2012-10-22 10:33:00,
2012-10-22 02:38:00,31.3,17.8,0.00,WNW,299,5.8,-999.0,56,0.00,,,-99.99,,2012-10-22 10:38:00,
2012-10-22 02:43:00,30.5,20.5,0.00,NW,313,7.8,-999.0,65,0.00,,,-99.99,,2012-10-22 10:43:00,
2012-10-22 02:48:00,30.3,21.9,0.00,NW,325,8.4,-999.0,70,0.00,,,-99.99,,2012-10-22 10:48:00,
2012-10-22 02:53:00,29.7,22.2,0.00,WNW,292,7.0,-999.0,73,0.00,,,-99.99,,2012-10-22 10:53:00,
2012-10-22 02:58:00,29.6,22.8,0.00,NW,304,8.9,-999.0,75,0.00,,,-99.99,,2012-10-22 10:58:00,
2012-10-22 03:03:00,30.0,23.3,0.00,WNW,301,8.6,-999.0,76,0.00,,,-99.99,,2012-10-22 11:03:00,
2012-10-22 03:08:00,30.1,23.7,0.00,WNW,302,11.4,-999.0,76,0.00,,,-99.99,,2012-10-22 11:08:00,
2012-10-22 03:13:00,30.0,23.4,0.00,WNW,285,10.3,-999.0,76,0.00,,,-99.99,,2012-10-22 11:13:00,
2012-10-22 03:18:00,30.0,23.3,0.00,WNW,302,11.6,-999.0,75,0.00,,,-99.99,,2012-10-22 11:18:00,
2012-10-22 03:24:00,30.2,23.3,0.00,NW,313,11.4,-999.0,75,0.00,,,-99.99,,2012-10-22 11:24:00,
2012-10-22 03:29:00,30.5,23.3,0.00,NW,313,9.6,-999.0,74,0.00,,,-99.99,,2012-10-22 11:29:00,
2012-10-22 03:34:00,30.1,23.1,0.00,NW,312,9.2,-999.0,75,0.00,,,-99.99,,2012-10-22 11:34:00,
2012-10-22 03:39:00,30.4,23.3,0.00,NW,308,10.3,-999.0,74,0.00,,,-99.99,,2012-10-22 11:39:00,
2012-10-22 03:44:00,30.6,23.1,0.00,NW,305,12.0,-999.0,73,0.00,,,-99.99,,2012-10-22 11:44:00,
2012-10-22 03:49:00,30.5,22.7,0.00,NW,306,11.1,-999.0,72,0.00,,,-99.99,,2012-10-22 11:49:00,
2012-10-22 03:54:00,30.3,22.7,0.00,NW,308,11.6,-999.0,72,0.00,,,-99.99,,2012-10-22 11:54:00,
2012-10-22 03:59:00,30.8,22.9,0.00,NW,315,12.7,-999.0,72,0.00,,,-99.99,,2012-10-22 11:59:00,
2012-10-22 04:04:00,30.2,23.3,0.00,NW,318,14.6,-999.0,75,0.00,,,-99.99,,2012-10-22 12:04:00,
2012-10-22 04:09:00,30.3,23.3,0.00,NW,325,12.8,-999.0,74,0.00,,,-99.99,,2012-10-22 12:09:00,
2012-10-22 04:14:00,30.2,23.3,0.00,NW,314,10.6,-999.0,75,0.00,,,-99.99,,2012-10-22 12:14:00,
2012-10-22 04:19:00,30.3,23.9,0.00,NW,313,13.2,-999.0,76,0.00,,,-99.99,,2012-10-22 12:19:00,
2012-10-22 04:24:00,30.5,24.1,0.00,NW,325,10.6,-999.0,77,0.00,,,-99.99,,2012-10-22 12:24:00,
2012-10-22 04:29:00,30.4,24.1,0.00,WNW,302,12.7,-999.0,77,0.00,,,-99.99,,2012-10-22 12:29:00,
2012-10-22 04:34:00,30.3,24.2,0.00,NW,312,11.5,-999.0,77,0.00,,,-99.99,,2012-10-22 12:34:00,
2012-10-22 04:39:00,30.0,24.3,0.00,NW,310,9.6,-999.0,79,0.00,,,-99.99,,2012-10-22 12:39:00,
2012-10-22 04:44:00,30.0,24.6,0.00,NW,305,10.5,-999.0,80,0.00,,,-99.99,,2012-10-22 12:44:00,
2012-10-22 04:49:00,29.9,25.4,0.00,WNW,293,9.7,-999.0,83,0.00,,,-99.99,,2012-10-22 12:49:00,
2012-10-22 04:54:00,29.7,25.2,0.00,WNW,301,10.7,-999.0,83,0.00,,,-99.99,,2012-10-22 12:54:00,
2012-10-22 04:59:00,29.6,25.3,0.00,NW,311,9.5,-999.0,83,0.00,,,-99.99,,2012-10-22 12:59:00,
2012-10-22 05:04:00,29.7,25.2,0.00,WNW,303,8.4,-999.0,83,0.00,,,-99.99,,2012-10-22 13:04:00,
2012-10-22 05:09:00,29.6,25.3,0.00,WNW,302,7.2,-999.0,83,0.00,,,-99.99,,2012-10-22 13:09:00,
2012-10-22 05:14:00,29.6,25.3,0.00,NW,313,8.1,-999.0,84,0.00,,,-99.99,,2012-10-22 13:14:00,
2012-10-22 05:19:00,29.9,25.5,0.00,NW,306,6.4,-999.0,83,0.00,,,-99.99,,2012-10-22 13:19:00,
2012-10-22 05:25:00,29.6,25.7,0.00,WNW,303,9.7,-999.0,85,0.00,,,-99.99,,2012-10-22 13:25:00,
2012-10-22 05:31:00,29.6,25.7,0.00,NW,315,7.0,-999.0,85,0.00,,,-99.99,,2012-10-22 13:31:00,
2012-10-22 05:36:00,29.6,25.7,0.00,NW,306,6.3,-999.0,85,0.00,,,-99.99,,2012-10-22 13:36:00,
2012-10-22 05:41:00,29.7,25.8,0.00,WNW,289,5.2,-999.0,85,0.00,,,-99.99,,2012-10-22 13:41:00,
2012-10-22 05:46:00,29.7,26.0,0.00,West,281,9.6,-999.0,86,0.00,,,-99.99,,2012-10-22 13:46:00,
2012-10-22 05:51:00,30.1,26.1,0.00,WNW,285,7.9,-999.0,85,0.00,,,-99.99,,2012-10-22 13:51:00,
2012-10-22 05:56:00,29.9,26.0,0.00,WNW,303,8.1,-999.0,85,0.00,,,-99.99,,2012-10-22 13:56:00,
2012-10-22 06:01:00,29.9,25.9,0.00,NNW,330,6.9,-999.0,84,0.00,,,-99.99,,2012-10-22 14:01:00,
2012-10-22 06:06:00,30.0,25.8,0.00,WNW,301,8.0,-999.0,84,0.00,,,-99.99,,2012-10-22 14:06:00,
2012-10-22 06:11:00,30.4,26.2,0.00,West,277,12.1,-999.0,84,0.00,,,-99.99,,2012-10-22 14:11:00,
2012-10-22 06:18:00,30.1,25.8,0.00,West,280,9.8,-999.0,83,0.00,,,-99.99,,2012-10-22 14:18:00,
2012-10-22 06:23:00,30.2,25.9,0.00,West,273,12.4,-999.0,83,0.00,,,-99.99,,2012-10-22 14:23:00,
2012-10-22 06:28:00,30.6,26.0,0.00,West,272,8.4,-999.0,82,0.00,,,-99.99,,2012-10-22 14:28:00,
2012-10-22 06:33:00,29.8,25.6,0.00,NW,310,7.8,-999.0,84,0.00,,,-99.99,,2012-10-22 14:33:00,
2012-10-22 06:38:00,29.9,25.5,0.00,NW,312,7.4,-999.0,83,0.00,,,-99.99,,2012-10-22 14:38:00,
2012-10-22 06:43:00,30.0,25.5,0.00,WNW,296,7.3,-999.0,83,0.00,,,-99.99,,2012-10-22 14:43:00,
2012-10-22 06:48:00,29.8,25.4,0.00,WNW,302,6.8,-999.0,83,0.00,,,-99.99,,2012-10-22 14:48:00,
2012-10-22 06:53:00,29.9,25.3,0.00,NW,325,5.0,-999.0,82,0.00,,,-99.99,,2012-10-22 14:53:00,
2012-10-22 06:58:00,29.9,25.4,0.00,WNW,287,4.3,-999.0,83,0.00,,,-99.99,,2012-10-22 14:58:00,
2012-10-22 07:03:00,29.6,25.2,0.00,WNW,297,4.8,-999.0,83,0.00,,,-99.99,,2012-10-22 15:03:00,
2012-10-22 07:08:00,29.6,25.4,0.00,NW,315,9.0,-999.0,84,0.00,,,-99.99,,2012-10-22 15:08:00,
2012-10-22 07:13:00,29.3,25.3,0.00,WNW,303,7.7,-999.0,84,0.00,,,-99.99,,2012-10-22 15:13:00,
2012-10-22 07:18:00,29.4,25.2,0.00,NW,313,7.8,-999.0,84,0.00,,,-99.99,,2012-10-22 15:18:00,
2012-10-22 07:23:00,29.5,25.4,0.00,NNW,329,8.8,-999.0,84,0.00,,,-99.99,,2012-10-22 15:23:00,
2012-10-22 07:28:00,29.3,25.3,0.00,NW,317,10.1,-999.0,85,0.00,,,-99.99,,2012-10-22 15:28:00,
2012-10-22 07:33:00,29.2,25.3,0.00,NW,308,11.8,-999.0,85,0.00,,,-99.99,,2012-10-22 15:33:00,
2012-10-22 07:38:00,29.2,25.4,0.00,NW,311,12.0,-999.0,85,0.00,,,-99.99,,2012-10-22 15:38:00,
2012-10-22 07:43:00,28.9,25.3,0.00,NW,321,11.5,-999.0,86,0.00,,,-99.99,,2012-10-22 15:43:00,
2012-10-22 07:48:00,28.7,25.4,0.00,NW,325,11.5,-999.0,87,0.00,,,-99.99,,2012-10-22 15:48:00,
2012-10-22 07:53:00,28.7,25.4,0.00,NW,317,10.2,-999.0,87,0.00,,,-99.99,,2012-10-22 15:53:00,
2012-10-22 07:58:00,28.9,25.4,0.00,WNW,300,11.1,-999.0,86,0.00,,,-99.99,,2012-10-22 15:58:00,
2012-10-22 08:03:00,29.1,25.4,0.00,NW,312,8.9,-999.0,86,0.00,,,-99.99,,2012-10-22 16:03:00,
2012-10-22 08:08:00,29.1,25.5,0.00,NW,318,8.2,-999.0,86,0.00,,,-99.99,,2012-10-22 16:08:00,
2012-10-22 08:14:00,28.9,25.3,0.00,NW,312,7.8,-999.0,86,0.00,,,-99.99,,2012-10-22 16:14:00,
2012-10-22 08:19:00,28.6,25.3,0.00,NW,310,8.1,-999.0,87,0.00,,,-99.99,,2012-10-22 16:19:00,
2012-10-22 08:24:00,28.7,25.0,0.00,NW,304,8.4,-999.0,86,0.00,,,-99.99,,2012-10-22 16:24:00,
2012-10-22 08:29:00,28.9,24.9,0.00,WNW,297,8.1,-999.0,84,0.00,,,-99.99,,2012-10-22 16:29:00,
2012-10-22 08:34:00,28.9,24.3,0.00,West,278,5.5,-999.0,82,0.00,,,-99.99,,2012-10-22 16:34:00,
2012-10-22 08:39:00,29.6,24.1,0.00,WNW,290,5.7,-999.0,79,0.00,,,-99.99,,2012-10-22 16:39:00,
2012-10-22 08:44:00,29.5,24.0,0.00,WNW,282,8.2,-999.0,79,0.00,,,-99.99,,2012-10-22 16:44:00,
2012-10-22 08:49:00,31.5,24.7,0.00,NW,315,10.3,-999.0,75,0.00,,,-99.99,,2012-10-22 16:49:00,
2012-10-22 08:54:00,29.8,24.0,0.00,NW,320,12.1,-999.0,78,0.00,,,-99.99,,2012-10-22 16:54:00,
2012-10-22 08:59:00,30.1,23.5,0.00,WNW,297,7.8,-999.0,76,0.00,,,-99.99,,2012-10-22 16:59:00,
2012-10-22 09:04:00,29.6,24.5,0.00,NW,309,9.9,-999.0,81,0.00,,,-99.99,,2012-10-22 17:04:00,
2012-10-22 09:09:00,29.5,24.2,0.00,WNW,303,11.6,-999.0,80,0.00,,,-99.99,,2012-10-22 17:09:00,
2012-10-22 09:14:00,29.7,24.6,0.00,NW,308,10.0,-999.0,81,0.00,,,-99.99,,2012-10-22 17:14:00,
2012-10-22 09:19:00,29.3,24.6,0.00,NW,304,9.4,-999.0,82,0.00,,,-99.99,,2012-10-22 17:19:00,
2012-10-22 09:24:00,29.3,24.9,0.00,WNW,300,7.4,-999.0,83,0.00,,,-99.99,,2012-10-22 17:24:00,
2012-10-22 09:29:00,29.2,24.6,0.00,NW,308,7.5,-999.0,83,0.00,,,-99.99,,2012-10-22 17:29:00,
2012-10-22 09:34:00,30.0,24.9,0.00,WNW,293,7.9,-999.0,81,0.00,,,-99.99,,2012-10-22 17:34:00,
2012-10-22 09:39:00,30.1,24.7,0.00,West,273,7.4,-999.0,80,0.00,,,-99.99,,2012-10-22 17:39:00,
2012-10-22 09:44:00,30.0,24.7,0.00,NW,310,7.2,-999.0,80,0.00,,,-99.99,,2012-10-22 17:44:00,
2012-10-22 09:49:00,29.8,24.4,0.00,WNW,301,6.2,-999.0,80,0.00,,,-99.99,,2012-10-22 17:49:00,
2012-10-22 09:54:00,29.6,24.5,0.00,NW,307,5.9,-999.0,81,0.00,,,-99.99,,2012-10-22 17:54:00,
2012-10-22 09:59:00,29.5,24.6,0.00,NW,312,4.5,-999.0,81,0.00,,,-99.99,,2012-10-22 17:59:00,
2012-10-22 10:04:00,29.6,24.9,0.00,WNW,300,5.7,-999.0,82,0.00,,,-99.99,,2012-10-22 18:04:00,
2012-10-22 10:10:00,29.5,25.3,0.00,WNW,302,3.8,-999.0,84,0.00,,,-99.99,,2012-10-22 18:10:00,
2012-10-22 10:15:00,29.9,25.4,0.00,WNW,292,4.8,-999.0,83,0.00,,,-99.99,,2012-10-22 18:15:00,
2012-10-22 10:20:00,30.1,25.4,0.00,NW,304,3.7,-999.0,82,0.00,,,-99.99,,2012-10-22 18:20:00,
2012-10-22 10:25:00,30.1,25.5,0.00,NNW,329,5.0,-999.0,82,0.00,,,-99.99,,2012-10-22 18:25:00,
2012-10-22 10:30:00,30.1,25.6,0.00,NW,315,3.2,-999.0,83,0.00,,,-99.99,,2012-10-22 18:30:00,
2012-10-22 10:35:00,30.2,25.9,0.00,WNW,291,4.7,-999.0,84,0.00,,,-99.99,,2012-10-22 18:35:00,
2012-10-22 10:40:00,30.2,25.9,0.00,NNW,333,4.5,-999.0,83,0.00,,,-99.99,,2012-10-22 18:40:00,
2012-10-22 10:45:00,30.3,25.9,0.00,WNW,290,4.6,-999.0,83,0.00,,,-99.99,,2012-10-22 18:45:00,
2012-10-22 10:50:00,30.4,25.8,0.00,North,354,4.0,-999.0,82,0.00,,,-99.99,,2012-10-22 18:50:00,
2012-10-22 10:56:00,30.1,25.9,0.00,NW,309,2.9,-999.0,84,0.00,,,-99.99,,2012-10-22 18:56:00,
2012-10-22 11:01:00,30.2,26.0,0.00,NNW,338,1.8,-999.0,83,0.00,,,-99.99,,2012-10-22 19:01:00,
2012-10-22 11:08:00,30.3,25.8,0.00,West,268,2.0,-999.0,83,0.00,,,-99.99,,2012-10-22 19:08:00,
2012-10-22 11:13:00,30.4,25.9,0.00,NNW,332,4.1,-999.0,83,0.00,,,-99.99,,2012-10-22 19:13:00,
2012-10-22 11:18:00,30.8,26.3,0.00,WNW,290,1.2,-999.0,83,0.00,,,-99.99,,2012-10-22 19:18:00,
2012-10-22 11:23:00,30.9,25.4,0.00,NW,317,7.6,-999.0,80,0.00,,,-99.99,,2012-10-22 19:23:00,
2012-10-22 11:28:00,31.0,25.8,0.00,NW,310,6.2,-999.0,80,0.00,,,-99.99,,2012-10-22 19:28:00,
2012-10-22 11:33:00,30.8,25.1,0.00,WNW,302,6.9,-999.0,79,0.00,,,-99.99,,2012-10-22 19:33:00,
2012-10-22 11:38:00,31.2,25.6,0.00,NW,309,4.6,-999.0,79,0.00,,,-99.99,,2012-10-22 19:38:00,
2012-10-22 11:43:00,31.3,25.3,0.00,West,278,5.9,-999.0,78,0.00,,,-99.99,,2012-10-22 19:43:00,
2012-10-22 11:48:00,30.7,25.0,0.00,NW,308,6.3,-999.0,79,0.00,,,-99.99,,2012-10-22 19:48:00,
2012-10-22 11:53:00,30.9,25.4,0.00,NW,308,3.1,-999.0,80,0.00,,,-99.99,,2012-10-22 19:53:00,
2012-10-22 11:58:00,31.3,25.0,0.00,NW,322,6.9,-999.0,77,0.00,,,-99.99,,2012-10-22 19:58:00,
2012-10-22 12:03:00,31.0,25.2,0.00,NW,316,6.0,-999.0,78,0.00,,,-99.99,,2012-10-22 20:03:00,
2012-10-22 12:08:00,31.5,25.7,0.00,West,264,4.1,-999.0,78,0.00,,,-99.99,,2012-10-22 20:08:00,
2012-10-22 12:13:00,32.2,26.0,0.00,NNW,329,1.3,-999.0,77,0.00,,,-99.99,,2012-10-22 20:13:00,
2012-10-22 12:18:00,32.0,25.6,0.00,West,270,2.7,-999.0,77,0.00,,,-99.99,,2012-10-22 20:18:00,
2012-10-22 12:23:00,32.1,25.9,0.00,NNW,334,2.7,-999.0,77,0.00,,,-99.99,,2012-10-22 20:23:00,
2012-10-22 12:28:00,31.9,25.7,0.00,WNW,291,3.2,-999.0,77,0.00,,,-99.99,,2012-10-22 20:28:00,
2012-10-22 12:33:00,32.0,25.9,0.00,NW,310,5.0,-999.0,78,0.00,,,-99.99,,2012-10-22 20:33:00,
2012-10-22 12:38:00,32.5,26.3,0.00,West,273,3.2,-999.0,77,0.00,,,-99.99,,2012-10-22 20:38:00,
2012-10-22 12:43:00,32.3,25.8,0.00,West,262,5.2,-999.0,76,0.00,,,-99.99,,2012-10-22 20:43:00,
2012-10-22 12:48:00,32.4,25.8,0.00,West,262,6.1,-999.0,76,0.00,,,-99.99,,2012-10-22 20:48:00,
2012-10-22 12:53:00,33.0,26.0,0.00,West,281,1.3,-999.0,75,0.00,,,-99.99,,2012-10-22 20:53:00,
2012-10-22 12:58:00,32.7,25.5,0.00,West,278,3.3,-999.0,74,0.00,,,-99.99,,2012-10-22 20:58:00,
2012-10-22 13:03:00,32.9,25.8,0.00,SSW,209,5.7,-999.0,75,0.00,,,-99.99,,2012-10-22 21:03:00,
2012-10-22 13:08:00,33.1,25.6,0.00,WNW,292,5.2,-999.0,73,0.00,,,-99.99,,2012-10-22 21:08:00,
2012-10-22 13:13:00,33.3,25.6,0.00,West,279,5.9,-999.0,73,0.00,,,-99.99,,2012-10-22 21:13:00,
2012-10-22 13:18:00,32.8,25.4,0.00,WSW,256,4.6,-999.0,74,0.00,,,-99.99,,2012-10-22 21:18:00,
2012-10-22 13:23:00,33.1,25.5,0.00,WSW,244,3.8,-999.0,73,0.00,,,-99.99,,2012-10-22 21:23:00,
2012-10-22 13:28:00,33.1,25.4,0.00,West,275,5.7,-999.0,73,0.00,,,-99.99,,2012-10-22 21:28:00,
2012-10-22 13:33:00,33.6,25.9,0.00,West,266,6.3,-999.0,72,0.00,,,-99.99,,2012-10-22 21:33:00,
2012-10-22 13:38:00,33.9,26.1,0.00,NNW,332,2.5,-999.0,73,0.00,,,-99.99,,2012-10-22 21:38:00,
2012-10-22 13:43:00,34.1,25.5,0.00,NW,305,13.6,-999.0,70,0.00,,,-99.99,,2012-10-22 21:43:00,
2012-10-22 13:48:00,33.8,25.7,0.00,NNW,339,5.8,-999.0,71,0.00,,,-99.99,,2012-10-22 21:48:00,
2012-10-22 13:53:00,33.2,25.3,0.00,SW,235,1.2,-999.0,72,0.00,,,-99.99,,2012-10-22 21:53:00,
2012-10-22 13:58:00,33.7,25.7,0.00,SSW,208,0.0,-999.0,72,0.00,,,-99.99,,2012-10-22 21:58:00,
2012-10-22 14:03:00,33.3,26.1,0.00,NW,307,5.3,-999.0,74,0.00,,,-99.99,,2012-10-22 22:03:00,
2012-10-22 14:08:00,33.3,26.0,0.00,NNW,343,3.3,-999.0,74,0.00,,,-99.99,,2012-10-22 22:08:00,
2012-10-22 14:13:00,33.6,26.3,0.00,North,3,5.0,-999.0,74,0.00,,,-99.99,,2012-10-22 22:13:00,
2012-10-22 14:18:00,32.8,25.8,0.00,WNW,300,7.2,-999.0,74,0.00,,,-99.99,,2012-10-22 22:18:00,
2012-10-22 14:23:00,33.3,26.2,0.00,SSW,194,0.2,-999.0,75,0.00,,,-99.99,,2012-10-22 22:23:00,
2012-10-22 14:28:00,32.8,25.8,0.00,NNW,344,2.3,-999.0,75,0.00,,,-99.99,,2012-10-22 22:28:00,
2012-10-22 14:33:00,32.6,25.7,0.00,NNW,337,2.0,-999.0,75,0.00,,,-99.99,,2012-10-22 22:33:00,
2012-10-22 14:38:00,32.5,25.9,0.00,NNW,336,2.8,-999.0,76,0.00,,,-99.99,,2012-10-22 22:38:00,
2012-10-22 14:43:00,32.4,26.0,0.00,North,3,2.7,-999.0,76,0.00,,,-99.99,,2012-10-22 22:43:00,
2012-10-22 14:48:00,32.5,25.8,0.00,WNW,303,3.7,-999.0,75,0.00,,,-99.99,,2012-10-22 22:48:00,
2012-10-22 14:53:00,32.5,25.9,0.00,NNW,340,5.6,-999.0,76,0.00,,,-99.99,,2012-10-22 22:53:00,
2012-10-22 14:58:00,32.3,24.9,0.00,WNW,297,8.5,-999.0,74,0.00,,,-99.99,,2012-10-22 22:58:00,
2012-10-22 15:03:00,32.4,25.4,0.00,West,272,9.2,-999.0,75,0.00,,,-99.99,,2012-10-22 23:03:00,
2012-10-22 15:09:00,32.2,25.5,0.00,WNW,296,7.5,-999.0,76,0.00,,,-99.99,,2012-10-22 23:09:00,
2012-10-22 15:15:00,32.2,25.3,0.00,NNW,344,5.6,-999.0,75,0.00,,,-99.99,,2012-10-22 23:15:00,
2012-10-22 15:20:00,32.7,26.1,0.00,NNW,330,6.8,-999.0,76,0.00,,,-99.99,,2012-10-22 23:20:00,
2012-10-22 15:25:00,32.5,25.7,0.00,West,279,6.4,-999.0,75,0.00,,,-99.99,,2012-10-22 23:25:00,
2012-10-22 15:30:00,32.5,25.7,0.00,NW,323,11.3,-999.0,76,0.00,,,-99.99,,2012-10-22 23:30:00,
2012-10-22 15:35:00,32.7,25.8,0.00,NW,311,5.7,-999.0,75,0.00,,,-99.99,,2012-10-22 23:35:00,
2012-10-22 15:40:00,32.7,26.0,0.00,North,2,1.5,-999.0,75,0.00,,,-99.99,,2012-10-22 23:40:00,
2012-10-22 15:45:00,32.8,26.1,0.00,NNE,20,1.6,-999.0,75,0.00,,,-99.99,,2012-10-22 23:45:00,
2012-10-22 15:50:00,33.1,26.4,0.00,NE,35,5.6,-999.0,76,0.00,,,-99.99,,2012-10-22 23:50:00,
2012-10-22 15:55:00,32.7,26.0,0.00,WSW,256,6.6,-999.0,76,0.00,,,-99.99,,2012-10-22 23:55:00,
2012-10-22 16:00:00,32.5,25.8,0.00,NNW,330,4.2,-999.0,76,0.00,,,-99.99,,2012-10-23 00:00:00,
2012-10-22 16:05:00,32.7,26.0,0.00,WNW,302,5.9,-999.0,76,0.00,,,-99.99,,2012-10-23 00:05:00,
2012-10-22 16:10:00,32.7,26.1,0.00,NNW,332,5.5,-999.0,76,0.00,,,-99.99,,2012-10-23 00:10:00,
2012-10-22 16:15:00,32.8,26.0,0.00,WNW,284,4.5,-999.0,75,0.00,,,-99.99,,2012-10-23 00:15:00,
2012-10-22 16:20:00,32.7,26.0,0.00,SSW,205,1.9,-999.0,76,0.00,,,-99.99,,2012-10-23 00:20:00,
2012-10-22 16:25:00,32.7,26.1,0.00,NNW,328,6.4,-999.0,76,0.00,,,-99.99,,2012-10-23 00:25:00,
2012-10-22 16:30:00,32.6,26.0,0.00,West,260,5.0,-999.0,76,0.00,,,-99.99,,2012-10-23 00:30:00,
2012-10-22 16:35:00,32.7,26.3,0.00,NW,314,4.4,-999.0,77,0.00,,,-99.99,,2012-10-23 00:35:00,
2012-10-22 16:40:00,32.5,26.1,0.00,NW,326,5.0,-999.0,77,0.00,,,-99.99,,2012-10-23 00:40:00,
2012-10-22 16:45:00,32.4,26.4,0.00,NNW,333,6.0,-999.0,78,0.00,,,-99.99,,2012-10-23 00:45:00,
2012-10-22 16:50:00,32.5,26.4,0.00,WNW,286,4.3,-999.0,77,0.00,,,-99.99,,2012-10-23 00:50:00,
2012-10-22 16:55:00,32.5,26.3,0.00,NW,309,4.2,-999.0,77,0.00,,,-99.99,,2012-10-23 00:55:00,
2012-10-22 17:00:00,32.4,26.4,0.00,NNW,329,3.1,-999.0,78,0.00,,,-99.99,,2012-10-23 01:00:00,
2012-10-22 17:06:00,32.3,26.4,0.00,NNW,337,7.2,-999.0,78,0.00,,,-99.99,,2012-10-23 01:06:00,
2012-10-22 17:11:00,32.1,27.0,0.00,North,354,5.5,-999.0,81,0.00,,,-99.99,,2012-10-23 01:11:00,
2012-10-22 17:16:00,32.0,27.1,0.00,NNW,327,9.4,-999.0,82,0.00,,,-99.99,,2012-10-23 01:16:00,
2012-10-22 17:21:00,31.8,27.8,0.00,NNW,328,10.9,-999.0,85,0.00,,,-99.99,,2012-10-23 01:21:00,
2012-10-22 17:26:00,31.5,28.0,0.00,West,276,4.9,-999.0,86,0.00,,,-99.99,,2012-10-23 01:26:00,
2012-10-22 17:31:00,31.3,28.5,0.00,NW,313,6.4,-999.0,89,0.00,,,-99.99,,2012-10-23 01:31:00,
2012-10-22 17:36:00,31.0,28.7,0.00,NNW,335,8.4,-999.0,91,0.00,,,-99.99,,2012-10-23 01:36:00,
2012-10-22 17:41:00,31.0,29.0,0.00,WNW,286,3.6,-999.0,92,0.00,,,-99.99,,2012-10-23 01:41:00,
2012-10-22 17:46:00,30.6,29.0,0.00,NW,309,5.3,-999.0,93,0.00,,,-99.99,,2012-10-23 01:46:00,
2012-10-22 17:51:00,30.7,29.0,0.00,NW,308,5.3,-999.0,93,0.00,,,-99.99,,2012-10-23 01:51:00,
2012-10-22 17:56:00,30.5,29.2,0.00,NW,311,7.9,-999.0,94,0.00,,,-99.99,,2012-10-23 01:56:00,
2012-10-22 18:01:00,30.6,29.3,0.00,NW,304,9.7,-999.0,94,0.00,,,-99.99,,2012-10-23 02:01:00,
2012-10-22 18:06:00,30.4,29.5,0.00,NW,326,10.1,-999.0,96,0.00,,,-99.99,,2012-10-23 02:06:00,
2012-10-22 18:11:00,30.2,29.6,0.00,North,350,7.3,-999.0,97,0.00,,,-99.99,,2012-10-23 02:11:00,
2012-10-22 18:16:00,30.1,29.5,0.00,NNW,328,9.6,-999.0,97,0.00,,,-99.99,,2012-10-23 02:16:00,
2012-10-22 18:21:00,30.0,29.5,0.00,NW,321,10.4,-999.0,98,0.00,,,-99.99,,2012-10-23 02:21:00,
2012-10-22 18:26:00,29.8,29.3,0.00,NW,313,12.0,-999.0,98,0.00,,,-99.99,,2012-10-23 02:26:00,
2012-10-22 18:31:00,29.6,28.8,0.00,NNW,330,14.7,-999.0,96,0.00,,,-99.99,,2012-10-23 02:31:00,
2012-10-22 18:36:00,29.6,28.6,0.00,NW,309,11.4,-999.0,96,0.00,,,-99.99,,2012-10-23 02:36:00,
2012-10-22 18:41:00,29.8,28.3,0.00,NNW,329,11.1,-999.0,94,0.00,,,-99.99,,2012-10-23 02:41:00,
2012-10-22 18:46:00,29.6,28.0,0.00,NW,313,16.4,-999.0,93,0.00,,,-99.99,,2012-10-23 02:46:00,
2012-10-22 18:51:00,29.5,27.9,0.00,NW,313,14.9,-999.0,93,0.00,,,-99.99,,2012-10-23 02:51:00,
2012-10-22 18:56:00,29.6,27.4,0.00,NW,326,14.4,-999.0,91,0.00,,,-99.99,,2012-10-23 02:56:00,
2012-10-22 19:01:00,29.8,27.1,0.00,NW,322,10.7,-999.0,89,0.00,,,-99.99,,2012-10-23 03:01:00,
2012-10-22 19:08:00,29.9,26.6,0.00,NW,321,12.4,-999.0,87,0.00,,,-99.99,,2012-10-23 03:08:00,
2012-10-22 19:13:00,30.1,26.5,0.00,NW,304,13.1,-999.0,86,0.00,,,-99.99,,2012-10-23 03:13:00,
2012-10-22 19:18:00,29.9,26.4,0.00,NNW,338,9.8,-999.0,86,0.00,,,-99.99,,2012-10-23 03:18:00,
2012-10-22 19:23:00,29.7,26.2,0.00,NW,308,10.1,-999.0,86,0.00,,,-99.99,,2012-10-23 03:23:00,
2012-10-22 19:28:00,30.1,26.4,0.00,NW,326,7.8,-999.0,86,0.00,,,-99.99,,2012-10-23 03:28:00,
2012-10-22 19:33:00,29.9,26.3,0.00,NW,306,9.6,-999.0,86,0.00,,,-99.99,,2012-10-23 03:33:00,
2012-10-22 19:38:00,29.7,26.0,0.00,NW,325,7.3,-999.0,86,0.00,,,-99.99,,2012-10-23 03:38:00,
2012-10-22 19:43:00,29.9,26.2,0.00,NW,304,8.8,-999.0,85,0.00,,,-99.99,,2012-10-23 03:43:00,
2012-10-22 19:48:00,30.2,26.0,0.00,WNW,301,13.3,-999.0,84,0.00,,,-99.99,,2012-10-23 03:48:00,
2012-10-22 19:53:00,30.1,25.6,0.00,NNW,330,14.0,-999.0,83,0.00,,,-99.99,,2012-10-23 03:53:00,
2012-10-22 19:58:00,29.9,25.6,0.00,NW,326,9.4,-999.0,83,0.00,,,-99.99,,2012-10-23 03:58:00,
2012-10-22 20:00:00,29.9,25.4,0.00,NW,314,8.3,-999.0,83,0.00,,,-99.99,,2012-10-23 04:00:00,
2012-10-22 20:02:00,29.8,25.4,0.00,NNW,333,6.2,-999.0,83,0.00,,,-99.99,,2012-10-23 04:02:00,
2012-10-22 20:07:00,29.8,25.4,0.00,North,353,11.5,-999.0,83,0.00,,,-99.99,,2012-10-23 04:07:00,
2012-10-22 20:12:00,29.5,25.3,0.00,NW,317,3.6,-999.0,84,0.00,,,-99.99,,2012-10-23 04:12:00,
2012-10-22 20:18:00,29.6,25.4,0.00,NNW,329,13.9,-999.0,84,0.00,,,-99.99,,2012-10-23 04:18:00,
2012-10-22 20:23:00,29.8,25.3,0.00,NW,316,10.6,-999.0,83,0.00,,,-99.99,,2012-10-23 04:23:00,
2012-10-22 20:28:00,29.6,25.2,0.00,NNW,330,15.9,-999.0,83,0.00,,,-99.99,,2012-10-23 04:28:00,
2012-10-22 20:33:00,29.5,25.3,0.00,North,2,7.7,-999.0,84,0.00,,,-99.99,,2012-10-23 04:33:00,
2012-10-22 20:38:00,29.6,25.4,0.00,NW,326,12.8,-999.0,84,0.00,,,-99.99,,2012-10-23 04:38:00,
2012-10-22 20:43:00,29.8,24.8,0.00,WNW,285,13.8,-999.0,81,0.00,,,-99.99,,2012-10-23 04:43:00,
2012-10-22 20:48:00,29.6,24.9,0.00,WNW,294,8.9,-999.0,82,0.00,,,-99.99,,2012-10-23 04:48:00,
2012-10-22 20:53:00,29.7,25.5,0.00,NNW,348,12.8,-999.0,84,0.00,,,-99.99,,2012-10-23 04:53:00,
2012-10-22 20:58:00,29.7,25.4,0.00,NNW,339,18.3,-999.0,83,0.00,,,-99.99,,2012-10-23 04:58:00,
2012-10-22 21:03:00,29.6,24.9,0.00,NNW,327,15.2,-999.0,82,0.00,,,-99.99,,2012-10-23 05:03:00,
2012-10-22 21:08:00,29.6,24.3,0.00,WNW,302,21.0,-999.0,80,0.00,,,-99.99,,2012-10-23 05:08:00,
2012-10-22 21:13:00,29.7,24.0,0.00,North,350,10.4,-999.0,79,0.00,,,-99.99,,2012-10-23 05:13:00,
2012-10-22 21:18:00,29.3,23.6,0.00,NW,321,12.9,-999.0,79,0.00,,,-99.99,,2012-10-23 05:18:00,
2012-10-22 21:23:00,29.3,23.6,0.00,NW,315,17.7,-999.0,79,0.00,,,-99.99,,2012-10-23 05:23:00,
2012-10-22 21:28:00,29.5,23.4,0.00,NW,306,12.2,-999.0,77,0.00,,,-99.99,,2012-10-23 05:28:00,
2012-10-22 21:33:00,29.5,23.8,0.00,NW,304,13.5,-999.0,79,0.00,,,-99.99,,2012-10-23 05:33:00,
2012-10-22 21:38:00,29.3,24.0,0.00,NW,321,10.9,-999.0,80,0.00,,,-99.99,,2012-10-23 05:38:00,
2012-10-22 21:43:00,29.3,23.7,0.00,NW,305,9.3,-999.0,79,0.00,,,-99.99,,2012-10-23 05:43:00,
2012-10-22 21:48:00,29.3,23.1,0.00,NNW,335,17.8,-999.0,77,0.00,,,-99.99,,2012-10-23 05:48:00,
2012-10-22 21:53:00,29.3,23.2,0.00,NW,319,10.6,-999.0,77,0.00,,,-99.99,,2012-10-23 05:53:00,
2012-10-22 21:58:00,29.1,23.6,0.00,NNW,335,12.9,-999.0,79,0.00,,,-99.99,,2012-10-23 05:58:00,
2012-10-22 22:03:00,29.0,23.2,0.00,NNW,331,18.6,-999.0,78,0.00,,,-99.99,,2012-10-23 06:03:00,
2012-10-22 22:08:00,29.2,23.3,0.00,WNW,286,12.8,-999.0,78,0.00,,,-99.99,,2012-10-23 06:08:00,
2012-10-22 22:13:00,29.1,23.2,0.00,WNW,289,13.6,-999.0,78,0.00,,,-99.99,,2012-10-23 06:13:00,
2012-10-22 22:18:00,28.9,23.5,0.00,WNW,291,11.7,-999.0,80,0.00,,,-99.99,,2012-10-23 06:18:00,
2012-10-22 22:23:00,28.7,23.7,0.00,NW,306,11.5,-999.0,81,0.00,,,-99.99,,2012-10-23 06:23:00,
2012-10-22 22:28:00,29.0,23.8,0.00,West,281,13.3,-999.0,80,0.00,,,-99.99,,2012-10-23 06:28:00,
2012-10-22 22:33:00,29.3,23.5,0.00,WNW,287,13.9,-999.0,78,0.00,,,-99.99,,2012-10-23 06:33:00,
2012-10-22 22:38:00,29.3,23.4,0.00,WNW,297,14.9,-999.0,78,0.00,,,-99.99,,2012-10-23 06:38:00,
2012-10-22 22:43:00,29.1,23.3,0.00,WNW,299,11.8,-999.0,78,0.00,,,-99.99,,2012-10-23 06:43:00,
2012-10-22 22:48:00,28.7,23.5,0.00,NW,311,8.4,-999.0,80,0.00,,,-99.99,,2012-10-23 06:48:00,
2012-10-22 22:53:00,28.9,23.8,0.00,WNW,301,10.4,-999.0,81,0.00,,,-99.99,,2012-10-23 06:53:00,
2012-10-22 22:58:00,29.1,23.8,0.00,WNW,290,11.5,-999.0,80,0.00,,,-99.99,,2012-10-23 06:58:00,
2012-10-22 23:03:00,29.1,23.7,0.00,West,263,11.5,-999.0,80,0.00,,,-99.99,,2012-10-23 07:03:00,
2012-10-22 23:08:00,28.8,23.2,0.00,WNW,302,11.5,-999.0,79,0.00,,,-99.99,,2012-10-23 07:08:00,
2012-10-22 23:13:00,29.0,23.2,0.00,NW,310,18.7,-999.0,78,0.00,,,-99.99,,2012-10-23 07:13:00,
2012-10-22 23:18:00,29.2,22.9,0.00,NW,319,14.4,-999.0,77,0.00,,,-99.99,,2012-10-23 07:18:00,
2012-10-22 23:23:00,29.3,22.6,0.00,WNW,298,14.7,-999.0,75,0.00,,,-99.99,,2012-10-23 07:23:00,
2012-10-22 23:28:00,29.0,23.4,0.00,East,88,7.2,-999.0,79,0.00,,,-99.99,,2012-10-23 07:28:00,
2012-10-22 23:33:00,28.7,22.8,0.00,NW,318,10.4,-999.0,78,0.00,,,-99.99,,2012-10-23 07:33:00,
2012-10-22 23:39:00,29.1,23.6,0.00,NW,311,14.6,-999.0,79,0.00,,,-99.99,,2012-10-23 07:39:00,
2012-10-22 23:44:00,29.0,23.6,0.00,NW,312,13.2,-999.0,80,0.00,,,-99.99,,2012-10-23 07:44:00,
2012-10-22 23:49:00,29.1,23.3,0.00,NW,305,14.7,-999.0,78,0.00,,,-99.99,,2012-10-23 07:49:00,
2012-10-22 23:54:00,29.0,23.4,0.00,NW,315,12.0,-999.0,79,0.00,,,-99.99,,2012-10-23 07:54:00,
2012-10-22 23:59:00,29.3,23.3,0.00,West,272,12.7,-999.0,78,0.00,,,-99.99,,2012-10-23 07:59:00,